Location: Rounton
(54.4000°N, 1.3500°W)
Time: 14:04:21
(UTC+00:00)

Transit 4A - Pass Details

Date: 01 December 2021
Orbit: 864 x 981 km, 66.8° (Epoch: 20 January)

Event Time Altitude Azimuth Distance (km) Brightness Sun altitude
Rises 19:39:26 0° 191° (S) 3,456 10.9 -32.8°
Enters shadow 19:39:59 - 189° (S) 3,256 10.8 -32.9°
Reaches altitude 10° 19:42:01 10° 183° (S) 2,534 - -33.2°
Maximum altitude 19:47:25 40° 116° (ESE) 1,310 - -34.0°
Drops below altitude 10° 19:52:59 10° 50° (NE) 2,617 - -34.8°
Sets 19:55:41 0° 43° (NE) 3,583 - -35.2°
